Time,TemperatureF,DewpointF,PressureIn,WindDirection,WindDirectionDegrees,WindSpeedMPH,WindSpeedGustMPH,Humidity,HourlyPrecipIn,Conditions,Clouds,dailyrainin,SoftwareType,DateUTC
2017-06-27 00:04:00,49.2,44.6,-100.00,West,261,0.0,0.0,84,0.00,CLR,FEW,0.00,WeatherDisplay:10.37,2017-06-27 05:04:00,
2017-06-27 00:09:00,49.1,44.8,-100.00,West,261,0.0,0.0,85,0.00,CLR,FEW,0.00,WeatherDisplay:10.37,2017-06-27 05:09:00,
2017-06-27 00:14:00,49.1,45.1,-100.00,West,261,0.0,0.0,86,0.00,CLR,FEW,0.00,WeatherDisplay:10.37,2017-06-27 05:14:00,
2017-06-27 00:19:00,48.9,44.9,-100.00,West,261,0.0,0.0,86,0.00,CLR,FEW,0.00,WeatherDisplay:10.37,2017-06-27 05:19:00,
2017-06-27 00:24:00,48.9,44.9,-100.00,West,261,0.0,0.0,86,0.00,CLR,FEW,0.00,WeatherDisplay:10.37,2017-06-27 05:24:00,
2017-06-27 00:29:00,48.7,44.7,-100.00,West,261,0.0,0.0,86,0.00,CLR,FEW,0.00,WeatherDisplay:10.37,2017-06-27 05:29:00,
2017-06-27 00:34:00,48.6,44.6,-100.00,West,261,0.0,0.0,86,0.00,CLR,FEW,0.00,WeatherDisplay:10.37,2017-06-27 05:34:00,
2017-06-27 00:39:00,48.5,44.5,-100.00,West,261,0.0,0.0,86,0.00,CLR,FEW,0.00,WeatherDisplay:10.37,2017-06-27 05:39:00,
2017-06-27 00:44:00,48.3,44.3,-100.00,West,261,0.0,0.0,86,0.00,CLR,FEW,0.00,WeatherDisplay:10.37,2017-06-27 05:44:00,
2017-06-27 00:46:00,48.3,44.3,-100.00,West,261,0.0,0.0,86,0.00,CLR,FEW,0.00,WeatherDisplay:10.37,2017-06-27 05:46:00,
2017-06-27 00:51:00,48.2,44.2,-100.00,West,261,0.0,0.0,86,0.00,CLR,FEW,0.00,WeatherDisplay:10.37,2017-06-27 05:51:00,
2017-06-27 00:56:00,48.1,44.1,-100.00,West,261,0.0,0.0,86,0.00,CLR,FEW,0.00,WeatherDisplay:10.37,2017-06-27 05:56:00,
2017-06-27 01:01:00,48.0,44.0,-100.00,West,261,0.0,0.0,86,0.00,CLR,FEW,0.00,WeatherDisplay:10.37,2017-06-27 06:01:00,
2017-06-27 01:06:00,47.9,43.9,-100.00,West,261,0.0,0.0,86,0.00,CLR,FEW,0.00,WeatherDisplay:10.37,2017-06-27 06:06:00,
2017-06-27 01:11:00,47.8,44.1,-100.00,West,261,0.0,0.0,87,0.00,CLR,FEW,0.00,WeatherDisplay:10.37,2017-06-27 06:11:00,
2017-06-27 01:16:00,47.9,44.2,-100.00,West,261,0.0,0.0,87,0.00,CLR,FEW,0.00,WeatherDisplay:10.37,2017-06-27 06:16:00,
2017-06-27 01:21:00,47.8,44.1,-100.00,West,261,0.0,0.0,87,0.00,CLR,FEW,0.00,WeatherDisplay:10.37,2017-06-27 06:21:00,
2017-06-27 01:26:00,47.7,44.0,-100.00,West,261,0.0,0.0,87,0.00,CLR,FEW,0.00,WeatherDisplay:10.37,2017-06-27 06:26:00,
2017-06-27 01:31:00,47.6,43.9,-100.00,West,261,0.0,0.0,87,0.00,CLR,FEW,0.00,WeatherDisplay:10.37,2017-06-27 06:31:00,
2017-06-27 01:36:00,47.6,43.9,-100.00,West,261,0.0,0.0,87,0.00,CLR,FEW,0.00,WeatherDisplay:10.37,2017-06-27 06:36:00,
2017-06-27 01:41:00,47.4,44.0,-100.00,West,261,0.0,0.0,88,0.00,CLR,FEW,0.00,WeatherDisplay:10.37,2017-06-27 06:41:00,
2017-06-27 01:46:00,47.4,44.0,-100.00,West,261,0.0,0.0,88,0.00,CLR,FEW,0.00,WeatherDisplay:10.37,2017-06-27 06:46:00,
2017-06-27 01:51:00,47.4,44.0,-100.00,West,261,0.0,0.0,88,0.00,CLR,FEW,0.00,WeatherDisplay:10.37,2017-06-27 06:51:00,
2017-06-27 01:56:00,47.3,43.9,-100.00,West,261,0.0,0.0,88,0.00,CLR,FEW,0.00,WeatherDisplay:10.37,2017-06-27 06:56:00,
2017-06-27 02:01:00,47.2,43.8,-100.00,West,261,0.0,0.0,88,0.00,CLR,FEW,0.00,WeatherDisplay:10.37,2017-06-27 07:01:00,
2017-06-27 02:06:00,47.2,43.8,-100.00,West,261,0.0,0.0,88,0.00,CLR,FEW,0.00,WeatherDisplay:10.37,2017-06-27 07:06:00,
2017-06-27 02:11:00,47.2,43.8,-100.00,West,261,0.0,0.0,88,0.00,CLR,FEW,0.00,WeatherDisplay:10.37,2017-06-27 07:11:00,
2017-06-27 02:16:00,47.1,44.0,-100.00,West,261,0.0,0.0,89,0.00,CLR,FEW,0.00,WeatherDisplay:10.37,2017-06-27 07:16:00,
2017-06-27 02:21:00,47.0,43.9,-100.00,West,261,0.0,0.0,89,0.00,CLR,FEW,0.00,WeatherDisplay:10.37,2017-06-27 07:21:00,
2017-06-27 02:26:00,47.1,44.0,-100.00,West,261,0.0,0.0,89,0.00,CLR,FEW,0.00,WeatherDisplay:10.37,2017-06-27 07:26:00,
2017-06-27 02:31:00,47.0,43.9,-100.00,West,261,0.0,0.0,89,0.00,CLR,FEW,0.00,WeatherDisplay:10.37,2017-06-27 07:31:00,
2017-06-27 02:36:00,47.0,43.9,-100.00,West,261,0.0,0.0,89,0.00,CLR,FEW,0.00,WeatherDisplay:10.37,2017-06-27 07:36:00,
2017-06-27 02:41:00,47.0,44.2,-100.00,West,261,0.0,0.0,90,0.00,CLR,FEW,0.00,WeatherDisplay:10.37,2017-06-27 07:41:00,
2017-06-27 02:46:00,47.0,44.2,-100.00,West,261,0.0,0.0,90,0.00,CLR,FEW,0.00,WeatherDisplay:10.37,2017-06-27 07:46:00,
2017-06-27 02:51:00,46.8,44.0,-100.00,West,261,0.0,0.0,90,0.00,CLR,FEW,0.00,WeatherDisplay:10.37,2017-06-27 07:51:00,
2017-06-27 02:56:00,46.8,44.0,-100.00,West,261,0.0,0.0,90,0.00,CLR,FEW,0.00,WeatherDisplay:10.37,2017-06-27 07:56:00,
2017-06-27 03:06:00,46.4,43.6,-100.00,West,261,0.0,0.0,90,0.00,CLR,FEW,0.00,WeatherDisplay:10.37,2017-06-27 08:06:00,
2017-06-27 03:11:00,46.3,43.5,-100.00,West,261,0.0,0.0,90,0.00,CLR,FEW,0.00,WeatherDisplay:10.37,2017-06-27 08:11:00,
2017-06-27 03:16:00,46.2,43.4,-100.00,West,261,0.0,0.0,90,0.00,CLR,FEW,0.00,WeatherDisplay:10.37,2017-06-27 08:16:00,
2017-06-27 03:21:00,46.2,43.4,-100.00,West,261,0.0,0.0,90,0.00,CLR,FEW,0.00,WeatherDisplay:10.37,2017-06-27 08:21:00,
2017-06-27 03:26:00,46.1,43.3,-100.00,West,261,0.0,0.0,90,0.00,CLR,FEW,0.00,WeatherDisplay:10.37,2017-06-27 08:26:00,
2017-06-27 03:31:00,45.9,43.1,-100.00,West,261,0.0,0.0,90,0.00,CLR,FEW,0.00,WeatherDisplay:10.37,2017-06-27 08:31:00,
2017-06-27 03:36:00,45.9,43.1,-100.00,West,261,0.0,0.0,90,0.00,CLR,FEW,0.00,WeatherDisplay:10.37,2017-06-27 08:36:00,
2017-06-27 03:41:00,45.8,43.0,-100.00,West,261,0.0,0.0,90,0.00,CLR,FEW,0.00,WeatherDisplay:10.37,2017-06-27 08:41:00,
2017-06-27 03:46:00,45.7,42.9,-100.00,West,261,0.0,0.0,90,0.00,CLR,FEW,0.00,WeatherDisplay:10.37,2017-06-27 08:46:00,
2017-06-27 03:51:00,45.6,42.8,-100.00,West,261,0.0,0.0,90,0.00,CLR,FEW,0.00,WeatherDisplay:10.37,2017-06-27 08:51:00,
2017-06-27 03:56:00,45.4,42.6,-100.00,West,261,0.0,0.0,90,0.00,CLR,FEW,0.00,WeatherDisplay:10.37,2017-06-27 08:56:00,
2017-06-27 04:01:00,45.4,42.6,-100.00,West,261,0.0,0.0,90,0.00,CLR,FEW,0.00,WeatherDisplay:10.37,2017-06-27 09:01:00,
2017-06-27 04:06:00,45.3,42.5,-100.00,West,261,0.0,0.0,90,0.00,CLR,FEW,0.00,WeatherDisplay:10.37,2017-06-27 09:06:00,
2017-06-27 04:11:00,45.3,42.5,-100.00,West,261,0.0,0.0,90,0.00,CLR,FEW,0.00,WeatherDisplay:10.37,2017-06-27 09:11:00,
2017-06-27 04:16:00,45.2,42.4,-100.00,West,261,0.0,0.0,90,0.00,CLR,FEW,0.00,WeatherDisplay:10.37,2017-06-27 09:16:00,
2017-06-27 04:21:00,45.1,42.3,-100.00,West,261,0.0,0.0,90,0.00,CLR,FEW,0.00,WeatherDisplay:10.37,2017-06-27 09:21:00,
2017-06-27 04:26:00,45.0,42.2,-100.00,West,261,0.0,0.0,90,0.00,CLR,FEW,0.00,WeatherDisplay:10.37,2017-06-27 09:26:00,
2017-06-27 04:31:00,44.9,42.1,-100.00,West,261,0.0,0.0,90,0.00,CLR,FEW,0.00,WeatherDisplay:10.37,2017-06-27 09:31:00,
2017-06-27 04:36:00,44.8,42.0,-100.00,West,261,0.0,0.0,90,0.00,CLR,FEW,0.00,WeatherDisplay:10.37,2017-06-27 09:36:00,
2017-06-27 04:41:00,44.8,42.3,-100.00,West,261,0.0,0.0,91,0.00,CLR,FEW,0.00,WeatherDisplay:10.37,2017-06-27 09:41:00,
2017-06-27 04:46:00,44.6,42.1,-100.00,West,261,0.0,0.0,91,0.00,CLR,FEW,0.00,WeatherDisplay:10.37,2017-06-27 09:46:00,
2017-06-27 04:51:00,44.6,42.1,-100.00,West,261,0.0,0.0,91,0.00,CLR,FEW,0.00,WeatherDisplay:10.37,2017-06-27 09:51:00,
2017-06-27 04:56:00,44.5,42.0,-100.00,West,261,0.0,0.0,91,0.00,CLR,FEW,0.00,WeatherDisplay:10.37,2017-06-27 09:56:00,
2017-06-27 05:01:00,44.6,42.1,-100.00,West,261,0.0,0.0,91,0.00,CLR,FEW,0.00,WeatherDisplay:10.37,2017-06-27 10:01:00,
2017-06-27 05:06:00,44.5,42.0,-100.00,West,261,0.0,0.0,91,0.00,CLR,FEW,0.00,WeatherDisplay:10.37,2017-06-27 10:06:00,
2017-06-27 05:11:00,44.4,41.9,-100.00,West,261,0.0,0.0,91,0.00,CLR,FEW,0.00,WeatherDisplay:10.37,2017-06-27 10:11:00,
2017-06-27 05:16:00,44.4,41.9,-100.00,West,261,0.0,0.0,91,0.00,CLR,FEW,0.00,WeatherDisplay:10.37,2017-06-27 10:16:00,
2017-06-27 05:21:00,44.3,41.8,-100.00,West,261,0.0,0.0,91,0.00,CLR,FEW,0.00,WeatherDisplay:10.37,2017-06-27 10:21:00,
2017-06-27 05:26:00,44.2,41.7,-100.00,West,261,0.0,0.0,91,0.00,CLR,FEW,0.00,WeatherDisplay:10.37,2017-06-27 10:26:00,
2017-06-27 05:31:00,44.2,41.7,-100.00,West,261,0.0,0.0,91,0.00,CLR,FEW,0.00,WeatherDisplay:10.37,2017-06-27 10:31:00,
2017-06-27 05:36:00,44.1,41.9,-100.00,West,261,0.0,0.0,92,0.00,CLR,FEW,0.00,WeatherDisplay:10.37,2017-06-27 10:36:00,
2017-06-27 05:42:00,44.2,42.0,-100.00,West,261,0.0,0.0,92,0.00,CLR,FEW,0.00,WeatherDisplay:10.37,2017-06-27 10:42:00,
2017-06-27 05:43:00,44.2,42.0,-100.00,West,261,0.0,0.0,92,0.00,CLR,FEW,0.00,WeatherDisplay:10.37,2017-06-27 10:43:00,
2017-06-27 05:48:00,44.2,42.0,-100.00,West,261,0.0,0.0,92,0.00,CLR,FEW,0.00,WeatherDisplay:10.37,2017-06-27 10:48:00,
2017-06-27 05:53:00,44.2,42.0,-100.00,West,261,0.0,0.0,92,0.00,CLR,FEW,0.00,WeatherDisplay:10.37,2017-06-27 10:53:00,
2017-06-27 05:58:00,44.1,41.9,-100.00,West,261,0.0,0.0,92,0.00,CLR,FEW,0.00,WeatherDisplay:10.37,2017-06-27 10:58:00,
2017-06-27 06:03:00,44.3,42.1,-100.00,West,261,0.0,0.0,92,0.00,CLR,FEW,0.00,WeatherDisplay:10.37,2017-06-27 11:03:00,
2017-06-27 06:08:00,44.5,42.3,-100.00,West,261,0.0,0.0,92,0.00,CLR,FEW,0.00,WeatherDisplay:10.37,2017-06-27 11:08:00,
2017-06-27 06:13:00,44.6,42.4,-100.00,West,261,0.0,0.0,92,0.00,CLR,FEW,0.00,WeatherDisplay:10.37,2017-06-27 11:13:00,
2017-06-27 06:18:00,44.8,42.9,-100.00,West,261,0.0,0.0,93,0.00,CLR,FEW,0.00,WeatherDisplay:10.37,2017-06-27 11:18:00,
2017-06-27 06:23:00,45.0,43.1,-100.00,West,261,0.0,0.0,93,0.00,CLR,FEW,0.00,WeatherDisplay:10.37,2017-06-27 11:23:00,
2017-06-27 06:28:00,45.4,43.5,-100.00,West,261,0.0,0.0,93,0.00,CLR,FEW,0.00,WeatherDisplay:10.37,2017-06-27 11:28:00,
2017-06-27 06:33:00,45.7,43.8,-100.00,West,261,0.0,0.0,93,0.00,CLR,FEW,0.00,WeatherDisplay:10.37,2017-06-27 11:33:00,
2017-06-27 06:39:00,46.4,44.8,-100.00,SSW,200,0.0,0.0,94,0.00,CLR,FEW,0.00,WeatherDisplay:10.37,2017-06-27 11:39:00,
2017-06-27 06:44:00,47.1,45.5,-100.00,SSW,200,0.0,0.0,94,0.00,CLR,FEW,0.00,WeatherDisplay:10.37,2017-06-27 11:44:00,
2017-06-27 06:49:00,47.8,46.2,-100.00,SSW,200,0.0,0.0,94,0.00,CLR,FEW,0.00,WeatherDisplay:10.37,2017-06-27 11:49:00,
2017-06-27 06:54:00,48.6,47.0,-100.00,South,181,0.5,1.1,94,0.00,CLR,FEW,0.00,WeatherDisplay:10.37,2017-06-27 11:54:00,
2017-06-27 06:59:00,49.5,48.1,-100.00,South,184,0.9,2.3,95,0.00,CLR,FEW,0.00,WeatherDisplay:10.37,2017-06-27 11:59:00,
2017-06-27 07:04:00,50.2,48.8,-100.00,SSW,196,0.5,0.5,95,0.00,CLR,FEW,0.00,WeatherDisplay:10.37,2017-06-27 12:04:00,
2017-06-27 07:09:00,50.9,49.5,-100.00,West,267,0.4,1.1,95,0.00,CLR,FEW,0.00,WeatherDisplay:10.37,2017-06-27 12:09:00,
2017-06-27 07:14:00,51.7,50.3,-100.00,WSW,247,1.6,2.3,95,0.00,CLR,FEW,0.00,WeatherDisplay:10.37,2017-06-27 12:14:00,
2017-06-27 07:19:00,52.3,50.6,-100.00,West,272,0.9,2.3,94,0.00,CLR,FEW,0.00,WeatherDisplay:10.37,2017-06-27 12:19:00,
2017-06-27 07:24:00,53.0,51.3,-100.00,ENE,64,0.1,1.1,94,0.00,CLR,FEW,0.00,WeatherDisplay:10.37,2017-06-27 12:24:00,
2017-06-27 07:29:00,53.5,51.8,-100.00,North,11,0.9,2.3,94,0.00,CLR,FEW,0.00,WeatherDisplay:10.37,2017-06-27 12:29:00,
2017-06-27 07:34:00,54.2,52.2,-100.00,WSW,241,1.5,2.3,93,0.00,CLR,FEW,0.00,WeatherDisplay:10.37,2017-06-27 12:34:00,
2017-06-27 07:39:00,54.8,52.2,-100.00,SSE,164,1.2,1.2,91,0.00,CLR,FEW,0.00,WeatherDisplay:10.37,2017-06-27 12:39:00,
2017-06-27 07:44:00,55.4,52.5,-100.00,WNW,302,2.6,2.6,90,0.00,CLR,FEW,0.00,WeatherDisplay:10.37,2017-06-27 12:44:00,
2017-06-27 07:49:00,55.9,52.1,-100.00,SSW,202,1.4,2.3,87,0.00,CLR,FEW,0.00,WeatherDisplay:10.37,2017-06-27 12:49:00,
2017-06-27 07:54:00,56.4,51.9,-100.00,North,350,1.8,2.3,85,0.00,CLR,FEW,0.00,WeatherDisplay:10.37,2017-06-27 12:54:00,
2017-06-27 07:59:00,56.9,51.8,-100.00,NNE,16,1.7,3.5,83,0.00,CLR,FEW,0.00,WeatherDisplay:10.37,2017-06-27 12:59:00,
2017-06-27 08:04:00,57.4,51.6,-100.00,ESE,102,2.8,3.0,81,0.00,CLR,FEW,0.00,WeatherDisplay:10.37,2017-06-27 13:04:00,
2017-06-27 08:09:00,57.8,51.7,-100.00,West,280,1.6,3.5,80,0.00,CLR,FEW,0.00,WeatherDisplay:10.37,2017-06-27 13:09:00,
2017-06-27 08:14:00,58.4,51.6,-100.00,NW,319,1.6,3.5,78,0.00,CLR,FEW,0.00,WeatherDisplay:10.37,2017-06-27 13:14:00,
2017-06-27 08:19:00,58.8,51.2,-100.00,WNW,282,1.0,3.5,76,0.00,CLR,FEW,0.00,WeatherDisplay:10.37,2017-06-27 13:19:00,
2017-06-27 08:24:00,59.2,50.9,-100.00,WNW,292,1.4,2.3,74,0.00,CLR,FEW,0.00,WeatherDisplay:10.37,2017-06-27 13:24:00,
2017-06-27 08:29:00,59.6,50.9,-100.00,WNW,302,1.4,2.3,73,0.00,CLR,FEW,0.00,WeatherDisplay:10.37,2017-06-27 13:29:00,
2017-06-27 08:35:00,60.2,51.1,-100.00,NW,318,1.1,3.5,72,0.00,CLR,FEW,0.00,WeatherDisplay:10.37,2017-06-27 13:35:00,
2017-06-27 08:40:00,61.1,51.2,-100.00,NW,305,2.2,6.3,70,0.00,CLR,FEW,0.00,WeatherDisplay:10.37,2017-06-27 13:40:00,
2017-06-27 08:45:00,61.9,51.2,-100.00,WNW,295,3.1,5.8,68,0.00,CLR,FEW,0.00,WeatherDisplay:10.37,2017-06-27 13:45:00,